Location: Azul
(36.7830°S, 59.8500°W)
Time: 08:32:56
(UTC-03:00)

UWE-3 - Pass Details

Date: 30 October 2021
Orbit: 584 x 681 km, 97.7° (Epoch: 06 December)

Event Time Altitude Azimuth Distance (km) Brightness Sun altitude
Exits shadow 02:53:55 - 62° (ENE) 2,706 ? -30.7°
Reaches altitude 10° 02:56:24 10° 83° (E) 2,035 ? -30.4°
Maximum altitude 02:58:43 14° 115° (ESE) 1,794 ? -30.1°
Drops below altitude 10° 03:01:05 10° 147° (SSE) 2,082 ? -29.8°
Sets 03:04:18 0° 171° (S) 3,024 ? -29.4°
